Regional Weather Roundup
Issued by NWS

Home | Current Version | Previous Version | Graphics & Text | Print | Product List | Glossary On
Versions: 1 2 3 4 5 6 7 8 9 10 11 12 13 14 15 16 17 18 19 20 21 22 23 24 25 26 27 28 29 30 31 32 33 34 35 36 37 38 39 40 41 42 43 44 45 46 47 48 49 50
000
ASUS44 KMEG 040210
RWRTN
TENNESSEE HOURLY STATE WEATHER ROUNDUP
NATIONAL WEATHER SERVICE MEMPHIS TN
900 PM CDT TUE MAY 03 2016

TNZ002-004-019-021-049-052-054-088>092-040300-
WEST TENNESSEE

CITY           SKY/WX    TMP DP  RH WIND       PRES   REMARKS
MEMPHIS INTL   CLEAR     57  48  72 CALM      29.97S
NWS MEMPHIS      N/A     55 N/A N/A MISG        N/A
JACKSON        PTCLDY    54  50  86 W3        29.96R
DYERSBURG      PTCLDY    55  48  76 CALM      29.96R
UNION CITY     CLEAR     54  50  87 CALM      29.95R
LEXINGTON      CLOUDY    55  54  94 CALM      29.94S
$$

TNZ008-025-027-028-033-062-065-066-040300-
NORTH MIDDLE TENNESSEE

CITY           SKY/WX    TMP DP  RH WIND       PRES   REMARKS
NASHVILLE      CLOUDY    60  44  55 CALM      29.93S
CLARKSVILLE    PTCLDY    56  47  71 W3        29.93S
SMYRNA         MOCLDY    58  47  66 NW7       29.94S
COOKEVILLE     CLOUDY    57  48  72 CALM      29.91S
CROSSVILLE     CLOUDY    56  45  66 NW6       29.92R
$$

TNZ061-075-076-078-094-096-097-040300-
SOUTH MIDDLE TENNESSEE

CITY           SKY/WX    TMP DP  RH WIND       PRES   REMARKS
FAYETTEVILLE   CLOUDY    59  50  72 NW5       29.93R
TULLAHOMA      CLOUDY    57  48  72 NW5       29.94R
WINCHESTER     CLOUDY    59  48  67 N9        29.93R
MCMINNVILLE    CLOUDY    57  46  67 NW6       29.92S
COLUMBIA       CLOUDY    59  57  94 CALM      29.93R
SHELBYVILLE    CLOUDY    61  50  67 NW6       29.94R
$$

TNZ017-018-042-046-047-040300-
NORTHEAST TENNESSEE

CITY           SKY/WX    TMP DP  RH WIND       PRES   REMARKS
TRI CITIES     MOCLDY    60  45  57 W5        29.85S
$$

TNZ012-013-036-069-073-074-040300-
CENTRAL EAST TENNESSEE

CITY           SKY/WX    TMP DP  RH WIND       PRES   REMARKS
KNOXVILLE      MOCLDY    62  48  60 NW5       29.87R
OAK RIDGE      CLEAR     58  48  69 CALM      29.89R
GATLINBURG     CLOUDY    61  46  59 CALM      29.87R
MORRISTOWN     MOCLDY    59  48  67 NW5       29.87R
$$

TNZ083-085-099-040300-
SOUTHEAST TENNESSEE

CITY           SKY/WX    TMP DP  RH WIND       PRES   REMARKS
CHATTANOOGA    MOCLDY    64  49  57 N8        29.89R
$$

SKY/WX REPORTED AS FAIR MEANS FEW OR NO CLOUDS BELOW
12 THOUSAND FEET.




USA.gov is the U.S. government's official web portal to all federal, state and local government web resources and services.